Time,TemperatureF,DewpointF,PressureIn,WindDirection,WindDirectionDegrees,WindSpeedMPH,WindSpeedGustMPH,Humidity,HourlyPrecipIn,Conditions,Clouds,dailyrainin,SolarRadiationWatts/m^2,SoftwareType,DateUTC
2013-04-06 00:10:00,44.1,21.3,30.06,NNW,332,1.0,1.0,40,0.00,,,0.00,0,Wunderground v.1.15,2013-04-06 04:10:00,
2013-04-06 00:20:00,44.1,21.3,30.07,NW,322,3.0,3.0,40,0.00,,,0.00,0,Wunderground v.1.15,2013-04-06 04:20:00,
2013-04-06 00:30:00,43.8,21.6,30.07,NNW,333,3.0,5.0,41,0.00,,,0.00,0,Wunderground v.1.15,2013-04-06 04:30:00,
2013-04-06 00:40:00,43.6,21.4,30.08,NW,319,3.0,5.0,41,0.00,,,0.00,0,Wunderground v.1.15,2013-04-06 04:40:00,
2013-04-06 00:50:00,43.5,21.9,30.08,NNW,331,4.0,4.0,42,0.00,,,0.00,0,Wunderground v.1.15,2013-04-06 04:50:00,
2013-04-06 01:00:00,43.4,21.8,30.08,NW,310,5.0,6.0,42,0.00,,,0.00,0,Wunderground v.1.15,2013-04-06 05:00:00,
2013-04-06 01:10:00,43.2,22.2,30.10,NW,321,3.0,3.0,43,0.00,,,0.00,0,Wunderground v.1.15,2013-04-06 05:10:00,
2013-04-06 01:20:00,42.6,22.2,30.09,NNW,329,2.0,4.0,44,0.00,,,0.00,0,Wunderground v.1.15,2013-04-06 05:20:00,
2013-04-06 01:30:00,42.0,22.2,30.10,NNW,328,2.0,2.0,45,0.00,,,0.00,0,Wunderground v.1.15,2013-04-06 05:30:00,
2013-04-06 01:40:00,41.3,22.1,30.11,NNW,340,1.0,3.0,46,0.00,,,0.00,0,Wunderground v.1.15,2013-04-06 05:40:00,
2013-04-06 01:50:00,41.0,22.3,30.11,NNW,335,3.0,3.0,47,0.00,,,0.00,0,Wunderground v.1.15,2013-04-06 05:50:00,
2013-04-06 02:10:00,40.8,23.1,30.12,NNW,330,3.0,9.0,49,0.00,,,0.00,0,Wunderground v.1.15,2013-04-06 06:10:00,
2013-04-06 02:20:00,40.8,23.6,30.12,NNW,332,5.0,5.0,50,0.00,,,0.00,0,Wunderground v.1.15,2013-04-06 06:20:00,
2013-04-06 02:30:00,40.7,23.5,30.13,NW,325,4.0,4.0,50,0.00,,,0.00,0,Wunderground v.1.15,2013-04-06 06:30:00,
2013-04-06 02:40:00,40.2,23.5,30.13,NNW,328,3.0,3.0,51,0.00,,,0.00,0,Wunderground v.1.15,2013-04-06 06:40:00,
2013-04-06 02:50:00,39.4,23.7,30.13,NW,324,1.0,1.0,53,0.00,,,0.00,0,Wunderground v.1.15,2013-04-06 06:50:00,
2013-04-06 03:00:00,39.2,23.5,30.13,NNW,329,2.0,2.0,53,0.00,,,0.00,0,Wunderground v.1.15,2013-04-06 07:00:00,
2013-04-06 03:10:00,38.8,23.6,30.14,NNW,330,0.0,0.0,54,0.00,,,0.00,0,Wunderground v.1.15,2013-04-06 07:10:00,
2013-04-06 03:20:00,38.4,23.6,30.14,NNW,330,0.0,0.0,55,0.00,,,0.00,0,Wunderground v.1.15,2013-04-06 07:20:00,
2013-04-06 03:30:00,37.3,23.4,30.15,NNW,330,0.0,0.0,57,0.00,,,0.00,0,Wunderground v.1.15,2013-04-06 07:30:00,
2013-04-06 03:40:00,36.0,23.4,30.15,NNW,330,0.0,0.0,60,0.00,,,0.00,0,Wunderground v.1.15,2013-04-06 07:40:00,
2013-04-06 03:49:00,36.6,23.6,30.16,NNW,330,0.0,0.0,59,0.00,,,0.00,0,Wunderground v.1.15,2013-04-06 07:49:00,
2013-04-06 04:00:00,36.0,23.4,30.16,NNW,330,0.0,0.0,60,0.00,,,0.00,0,Wunderground v.1.15,2013-04-06 08:00:00,
2013-04-06 04:10:00,36.0,23.4,30.16,NNW,330,0.0,0.0,60,0.00,,,0.00,0,Wunderground v.1.15,2013-04-06 08:10:00,
2013-04-06 04:20:00,36.1,23.5,30.16,NNW,330,0.0,0.0,60,0.00,,,0.00,0,Wunderground v.1.15,2013-04-06 08:20:00,
2013-04-06 04:30:00,36.3,23.7,30.16,NNW,330,0.0,0.0,60,0.00,,,0.00,0,Wunderground v.1.15,2013-04-06 08:30:00,
2013-04-06 04:40:00,36.4,23.4,30.16,NNW,330,0.0,0.0,59,0.00,,,0.00,0,Wunderground v.1.15,2013-04-06 08:40:00,
2013-04-06 04:50:00,36.2,23.6,30.16,NNW,330,0.0,0.0,60,0.00,,,0.00,0,Wunderground v.1.15,2013-04-06 08:50:00,
2013-04-06 04:59:00,36.0,23.4,30.16,NNW,334,0.0,0.0,60,0.00,,,0.00,0,Wunderground v.1.15,2013-04-06 08:59:00,
2013-04-06 05:09:00,35.9,23.4,30.17,NNW,333,0.0,0.0,60,0.00,,,0.00,0,Wunderground v.1.15,2013-04-06 09:09:00,
2013-04-06 05:20:00,35.8,23.3,30.17,NNW,333,0.0,0.0,60,0.00,,,0.00,0,Wunderground v.1.15,2013-04-06 09:20:00,
2013-04-06 05:30:00,35.7,23.2,30.18,NNW,332,0.0,0.0,60,0.00,,,0.00,0,Wunderground v.1.15,2013-04-06 09:30:00,
2013-04-06 05:40:00,35.7,23.6,30.18,WNW,299,0.0,0.0,61,0.00,,,0.00,0,Wunderground v.1.15,2013-04-06 09:40:00,
2013-04-06 05:50:00,35.5,23.4,30.19,NNW,329,0.0,0.0,61,0.00,,,0.00,0,Wunderground v.1.15,2013-04-06 09:50:00,
2013-04-06 06:10:00,35.5,23.8,30.19,WNW,296,1.0,1.0,62,0.00,,,0.00,0,Wunderground v.1.15,2013-04-06 10:10:00,
2013-04-06 06:20:00,35.4,23.7,30.20,NW,306,1.0,1.0,62,0.00,,,0.00,0,Wunderground v.1.15,2013-04-06 10:20:00,
2013-04-06 06:30:00,35.2,23.5,30.21,NW,304,1.0,1.0,62,0.00,,,0.00,0,Wunderground v.1.15,2013-04-06 10:30:00,
2013-04-06 06:40:00,34.9,23.6,30.23,NNW,332,0.0,0.0,63,0.00,,,0.00,0,Wunderground v.1.15,2013-04-06 10:40:00,
2013-04-06 06:49:00,34.9,23.6,30.22,NNW,332,0.0,0.0,63,0.00,,,0.00,5,Wunderground v.1.15,2013-04-06 10:49:00,
2013-04-06 07:00:00,34.6,23.3,30.24,NNW,332,0.0,0.0,63,0.00,,,0.00,12,Wunderground v.1.15,2013-04-06 11:00:00,
2013-04-06 07:09:00,34.7,23.8,30.24,NNW,332,0.0,0.0,64,0.00,,,0.00,23,Wunderground v.1.15,2013-04-06 11:09:00,
2013-04-06 07:20:00,35.3,24.0,30.25,NNW,332,0.0,0.0,63,0.00,,,0.00,40,Wunderground v.1.15,2013-04-06 11:20:00,
2013-04-06 07:30:00,35.7,23.9,30.24,NNW,332,0.0,0.0,62,0.00,,,0.00,65,Wunderground v.1.15,2013-04-06 11:30:00,
2013-04-06 07:40:00,36.2,24.8,30.25,NNW,328,1.0,1.0,63,0.00,,,0.00,97,Wunderground v.1.15,2013-04-06 11:40:00,
2013-04-06 07:50:00,36.5,24.7,30.26,NE,51,0.0,0.0,62,0.00,,,0.00,130,Wunderground v.1.15,2013-04-06 11:50:00,
2013-04-06 08:00:00,37.0,25.2,30.27,NNW,332,1.0,2.0,62,0.00,,,0.00,171,Wunderground v.1.15,2013-04-06 12:00:00,
2013-04-06 08:10:00,37.7,25.5,30.27,NNW,330,2.0,3.0,61,0.00,,,0.00,209,Wunderground v.1.15,2013-04-06 12:10:00,
2013-04-06 08:20:00,38.4,25.7,30.28,NNW,333,1.0,5.0,60,0.00,,,0.00,241,Wunderground v.1.15,2013-04-06 12:20:00,
2013-04-06 08:30:00,38.7,25.2,30.28,NNW,346,2.0,2.0,58,0.00,,,0.00,274,Wunderground v.1.15,2013-04-06 12:30:00,
2013-04-06 08:40:00,39.1,25.6,30.29,North,360,2.0,2.0,58,0.00,,,0.00,309,Wunderground v.1.15,2013-04-06 12:40:00,
2013-04-06 08:50:00,39.6,26.0,30.29,NE,39,2.0,2.0,58,0.00,,,0.00,343,Wunderground v.1.15,2013-04-06 12:50:00,
2013-04-06 09:00:00,39.9,25.5,30.29,North,5,2.0,2.0,56,0.00,,,0.00,376,Wunderground v.1.15,2013-04-06 13:00:00,
2013-04-06 09:10:00,40.9,26.4,30.29,NNW,327,1.0,1.0,56,0.00,,,0.00,411,Wunderground v.1.15,2013-04-06 13:10:00,
2013-04-06 09:20:00,40.5,25.6,30.30,NNE,26,3.0,4.0,55,0.00,,,0.00,446,Wunderground v.1.15,2013-04-06 13:20:00,
2013-04-06 09:30:00,41.1,26.6,30.30,NE,35,1.0,1.0,56,0.00,,,0.00,475,Wunderground v.1.15,2013-04-06 13:30:00,
2013-04-06 09:40:00,41.6,26.6,30.30,ENE,65,1.0,3.0,55,0.00,,,0.00,506,Wunderground v.1.15,2013-04-06 13:40:00,
2013-04-06 09:50:00,41.1,24.3,30.30,West,259,2.0,2.0,51,0.00,,,0.00,536,Wunderground v.1.15,2013-04-06 13:50:00,
2013-04-06 10:00:00,41.4,25.1,30.30,North,349,1.0,1.0,52,0.00,,,0.00,564,Wunderground v.1.15,2013-04-06 14:00:00,
2013-04-06 10:09:00,41.5,25.6,30.30,NNW,348,1.0,3.0,53,0.00,,,0.00,591,Wunderground v.1.15,2013-04-06 14:09:00,
2013-04-06 10:20:00,42.2,25.3,30.30,ESE,118,2.0,2.0,51,0.00,,,0.00,624,Wunderground v.1.15,2013-04-06 14:20:00,
2013-04-06 10:30:00,43.2,26.3,30.31,NNW,348,2.0,2.0,51,0.00,,,0.00,652,Wunderground v.1.15,2013-04-06 14:30:00,
2013-04-06 10:40:00,43.1,24.2,30.30,NNW,333,1.0,2.0,47,0.00,,,0.00,675,Wunderground v.1.15,2013-04-06 14:40:00,
2013-04-06 10:50:00,43.7,26.3,30.31,NNW,341,1.0,1.0,50,0.00,,,0.00,696,Wunderground v.1.15,2013-04-06 14:50:00,
2013-04-06 11:00:00,43.8,25.4,30.30,NE,39,1.0,1.0,48,0.00,,,0.00,724,Wunderground v.1.15,2013-04-06 15:00:00,
2013-04-06 11:10:00,44.3,26.3,30.30,NNW,344,1.0,1.0,49,0.00,,,0.00,744,Wunderground v.1.15,2013-04-06 15:10:00,
2013-04-06 11:20:00,44.9,25.3,30.30,NNW,343,1.0,1.0,46,0.00,,,0.00,761,Wunderground v.1.15,2013-04-06 15:20:00,
2013-04-06 11:30:00,45.8,26.7,30.30,ENE,70,2.0,3.0,47,0.00,,,0.00,780,Wunderground v.1.15,2013-04-06 15:30:00,
2013-04-06 11:39:00,46.2,24.9,30.30,NW,306,2.0,2.0,43,0.00,,,0.00,795,Wunderground v.1.15,2013-04-06 15:39:00,
2013-04-06 11:50:00,46.0,25.3,30.30,WSW,246,1.0,1.0,44,0.00,,,0.00,816,Wunderground v.1.15,2013-04-06 15:50:00,
2013-04-06 12:00:00,46.7,26.5,30.30,East,79,1.0,2.0,45,0.00,,,0.00,823,Wunderground v.1.15,2013-04-06 16:00:00,
2013-04-06 12:10:00,47.4,29.2,30.30,NE,47,2.0,2.0,49,0.00,,,0.00,837,Wunderground v.1.15,2013-04-06 16:10:00,
2013-04-06 12:20:00,47.9,26.5,30.29,WSW,252,2.0,2.0,43,0.00,,,0.00,846,Wunderground v.1.15,2013-04-06 16:20:00,
2013-04-06 12:29:00,47.7,26.3,30.29,SW,220,1.0,2.0,43,0.00,,,0.00,851,Wunderground v.1.15,2013-04-06 16:29:00,
2013-04-06 12:40:00,47.9,28.1,30.29,ENE,65,2.0,4.0,46,0.00,,,0.00,861,Wunderground v.1.15,2013-04-06 16:40:00,
2013-04-06 12:50:00,47.6,26.2,30.29,ENE,74,3.0,3.0,43,0.00,,,0.00,867,Wunderground v.1.15,2013-04-06 16:50:00,
2013-04-06 13:00:00,48.2,29.4,30.29,SE,132,2.0,2.0,48,0.00,,,0.00,872,Wunderground v.1.15,2013-04-06 17:00:00,
2013-04-06 13:10:00,48.5,28.6,30.28,East,93,1.0,3.0,46,0.00,,,0.00,868,Wunderground v.1.15,2013-04-06 17:10:00,
2013-04-06 13:20:00,48.6,27.1,30.28,SW,217,1.0,4.0,43,0.00,,,0.00,874,Wunderground v.1.15,2013-04-06 17:20:00,
2013-04-06 13:30:00,49.7,26.3,30.28,West,263,1.0,1.0,40,0.00,,,0.00,870,Wunderground v.1.15,2013-04-06 17:30:00,
2013-04-06 13:40:00,50.0,28.4,30.28,ESE,121,2.0,4.0,43,0.00,,,0.00,745,Wunderground v.1.15,2013-04-06 17:40:00,
2013-04-06 13:50:00,49.6,23.7,30.28,WSW,248,3.0,3.0,36,0.00,,,0.00,861,Wunderground v.1.15,2013-04-06 17:50:00,
2013-04-06 14:00:00,50.9,27.4,30.27,SW,221,1.0,1.0,40,0.00,,,0.00,854,Wunderground v.1.15,2013-04-06 18:00:00,
2013-04-06 14:10:00,51.2,26.4,30.27,SE,132,1.0,1.0,38,0.00,,,0.00,847,Wunderground v.1.15,2013-04-06 18:10:00,
2013-04-06 14:19:00,52.7,29.0,30.26,SSW,211,1.0,1.0,40,0.00,,,0.00,838,Wunderground v.1.15,2013-04-06 18:19:00,
2013-04-06 14:30:00,51.8,25.7,30.26,WSW,240,2.0,2.0,36,0.00,,,0.00,759,Wunderground v.1.15,2013-04-06 18:30:00,
2013-04-06 14:40:00,52.7,27.8,30.26,SSW,207,1.0,2.0,38,0.00,,,0.00,779,Wunderground v.1.15,2013-04-06 18:40:00,
2013-04-06 14:50:00,52.1,26.6,30.24,SW,220,1.0,1.0,37,0.00,,,0.00,684,Wunderground v.1.15,2013-04-06 18:50:00,
2013-04-06 15:00:00,52.8,27.9,30.24,ESE,105,2.0,4.0,38,0.00,,,0.00,768,Wunderground v.1.15,2013-04-06 19:00:00,
2013-04-06 15:20:00,53.3,28.3,30.23,SSE,148,1.0,5.0,38,0.00,,,0.00,761,Wunderground v.1.15,2013-04-06 19:20:00,
2013-04-06 15:30:00,53.9,28.8,30.22,SE,136,1.0,1.0,38,0.00,,,0.00,722,Wunderground v.1.15,2013-04-06 19:30:00,
2013-04-06 15:40:00,54.6,29.5,30.22,SSE,155,3.0,9.0,38,0.00,,,0.00,698,Wunderground v.1.15,2013-04-06 19:40:00,
2013-04-06 15:50:00,54.4,29.3,30.22,ESE,123,2.0,3.0,38,0.00,,,0.00,673,Wunderground v.1.15,2013-04-06 19:50:00,
2013-04-06 16:00:00,53.8,27.4,30.21,NE,54,2.0,2.0,36,0.00,,,0.00,649,Wunderground v.1.15,2013-04-06 20:00:00,
2013-04-06 16:10:00,53.7,26.0,30.21,SE,124,2.0,2.0,34,0.00,,,0.00,619,Wunderground v.1.15,2013-04-06 20:10:00,
2013-04-06 16:20:00,54.4,25.9,30.21,South,175,3.0,3.0,33,0.00,,,0.00,589,Wunderground v.1.15,2013-04-06 20:20:00,
2013-04-06 16:30:00,54.1,24.9,30.20,East,98,2.0,6.0,32,0.00,,,0.00,564,Wunderground v.1.15,2013-04-06 20:30:00,
2013-04-06 16:50:00,55.6,26.2,30.21,SE,132,1.0,1.0,32,0.00,,,0.00,492,Wunderground v.1.15,2013-04-06 20:50:00,
2013-04-06 17:00:00,55.2,27.3,30.21,ESE,123,3.0,3.0,34,0.00,,,0.00,469,Wunderground v.1.15,2013-04-06 21:00:00,
2013-04-06 17:10:00,54.9,27.0,30.21,SSE,158,2.0,3.0,34,0.00,,,0.00,309,Wunderground v.1.15,2013-04-06 21:10:00,
2013-04-06 17:20:00,54.4,25.1,30.21,NE,54,1.0,1.0,32,0.00,,,0.00,381,Wunderground v.1.15,2013-04-06 21:20:00,
2013-04-06 17:30:00,55.0,26.4,30.20,ESE,118,3.0,5.0,33,0.00,,,0.00,355,Wunderground v.1.15,2013-04-06 21:30:00,
2013-04-06 17:40:00,55.2,26.6,30.20,ESE,122,2.0,2.0,33,0.00,,,0.00,329,Wunderground v.1.15,2013-04-06 21:40:00,
2013-04-06 17:50:00,54.8,25.5,30.21,East,85,1.0,1.0,32,0.00,,,0.00,299,Wunderground v.1.15,2013-04-06 21:50:00,
2013-04-06 18:00:00,54.9,24.8,30.21,ESE,114,3.0,3.0,31,0.00,,,0.00,272,Wunderground v.1.15,2013-04-06 22:00:00,
2013-04-06 18:10:00,54.7,25.4,30.20,ESE,109,2.0,2.0,32,0.00,,,0.00,167,Wunderground v.1.15,2013-04-06 22:10:00,
2013-04-06 18:20:00,54.2,24.2,30.20,SE,134,3.0,4.0,31,0.00,,,0.00,98,Wunderground v.1.15,2013-04-06 22:20:00,
2013-04-06 18:29:00,53.9,25.4,30.20,ESE,107,4.0,6.0,33,0.00,,,0.00,60,Wunderground v.1.15,2013-04-06 22:29:00,
2013-04-06 18:40:00,53.7,26.0,30.20,SE,140,2.0,2.0,34,0.00,,,0.00,58,Wunderground v.1.15,2013-04-06 22:40:00,
2013-04-06 18:50:00,53.2,24.8,30.20,ESE,121,2.0,2.0,33,0.00,,,0.00,46,Wunderground v.1.15,2013-04-06 22:50:00,
2013-04-06 19:00:00,53.1,25.4,30.21,ESE,123,3.0,3.0,34,0.00,,,0.00,33,Wunderground v.1.15,2013-04-06 23:00:00,
2013-04-06 19:09:00,52.9,24.5,30.20,SE,129,2.0,2.0,33,0.00,,,0.00,26,Wunderground v.1.15,2013-04-06 23:09:00,
2013-04-06 19:20:00,52.4,24.8,30.20,SE,132,2.0,2.0,34,0.00,,,0.00,14,Wunderground v.1.15,2013-04-06 23:20:00,
2013-04-06 19:30:00,51.8,24.3,30.20,SE,127,1.0,1.0,34,0.00,,,0.00,7,Wunderground v.1.15,2013-04-06 23:30:00,
2013-04-06 19:40:00,51.3,25.2,30.20,SE,134,1.0,1.0,36,0.00,,,0.00,0,Wunderground v.1.15,2013-04-06 23:40:00,
2013-04-06 19:50:00,50.9,24.9,30.20,SE,132,0.0,0.0,36,0.00,,,0.00,0,Wunderground v.1.15,2013-04-06 23:50:00,
2013-04-06 19:59:00,50.5,24.5,30.20,SE,129,0.0,2.0,36,0.00,,,0.00,0,Wunderground v.1.15,2013-04-06 23:59:00,
2013-04-06 20:10:00,50.3,24.3,30.20,ESE,121,0.0,0.0,36,0.00,,,0.00,0,Wunderground v.1.15,2013-04-07 00:10:00,
2013-04-06 20:20:00,50.1,24.2,30.20,SE,128,0.0,0.0,36,0.00,,,0.00,0,Wunderground v.1.15,2013-04-07 00:20:00,
2013-04-06 20:30:00,50.2,24.2,30.20,SE,130,1.0,1.0,36,0.00,,,0.00,0,Wunderground v.1.15,2013-04-07 00:30:00,
2013-04-06 20:40:00,50.0,24.1,30.20,SE,130,1.0,1.0,36,0.00,,,0.00,0,Wunderground v.1.15,2013-04-07 00:40:00,
2013-04-06 20:49:00,50.0,24.7,30.20,SE,137,2.0,2.0,37,0.00,,,0.00,0,Wunderground v.1.15,2013-04-07 00:49:00,
2013-04-06 21:00:00,49.8,25.2,30.20,SE,140,2.0,2.0,38,0.00,,,0.00,0,Wunderground v.1.15,2013-04-07 01:00:00,
2013-04-06 21:09:00,49.6,25.6,30.20,ESE,117,2.0,2.0,39,0.00,,,0.00,0,Wunderground v.1.15,2013-04-07 01:09:00,
2013-04-06 21:20:00,49.7,24.5,30.21,SE,135,3.0,3.0,37,0.00,,,0.00,0,Wunderground v.1.15,2013-04-07 01:20:00,
2013-04-06 21:30:00,49.7,24.5,30.21,SE,142,4.0,4.0,37,0.00,,,0.00,0,Wunderground v.1.15,2013-04-07 01:30:00,
2013-04-06 21:40:00,49.7,23.8,30.20,ESE,121,5.0,5.0,36,0.00,,,0.00,0,Wunderground v.1.15,2013-04-07 01:40:00,
2013-04-06 21:49:00,49.5,24.9,30.21,SE,140,4.0,5.0,38,0.00,,,0.00,0,Wunderground v.1.15,2013-04-07 01:49:00,
2013-04-06 22:00:00,49.4,26.1,30.21,SE,144,4.0,6.0,40,0.00,,,0.00,0,Wunderground v.1.15,2013-04-07 02:00:00,
2013-04-06 22:10:00,49.2,26.5,30.21,SE,136,4.0,5.0,41,0.00,,,0.00,0,Wunderground v.1.15,2013-04-07 02:10:00,
2013-04-06 22:30:00,48.4,27.5,30.21,SE,144,4.0,4.0,44,0.00,,,0.00,0,Wunderground v.1.15,2013-04-07 02:30:00,
2013-04-06 22:39:00,47.9,27.0,30.21,SE,145,4.0,4.0,44,0.00,,,0.00,0,Wunderground v.1.15,2013-04-07 02:39:00,
2013-04-06 22:50:00,47.2,27.5,30.21,SSE,147,2.0,3.0,46,0.00,,,0.00,0,Wunderground v.1.15,2013-04-07 02:50:00,
2013-04-06 23:00:00,46.8,26.6,30.21,SSE,147,2.0,2.0,45,0.00,,,0.00,0,Wunderground v.1.15,2013-04-07 03:00:00,
2013-04-06 23:10:00,46.1,27.0,30.21,SE,143,1.0,1.0,47,0.00,,,0.00,0,Wunderground v.1.15,2013-04-07 03:10:00,
2013-04-06 23:20:00,45.7,26.6,30.21,SSE,152,0.0,0.0,47,0.00,,,0.00,0,Wunderground v.1.15,2013-04-07 03:20:00,
2013-04-06 23:30:00,45.3,26.2,30.21,SSE,156,0.0,0.0,47,0.00,,,0.00,0,Wunderground v.1.15,2013-04-07 03:30:00,
2013-04-06 23:39:00,45.2,26.1,30.21,SSE,155,0.0,0.0,47,0.00,,,0.00,0,Wunderground v.1.15,2013-04-07 03:39:00,
2013-04-06 23:50:00,45.0,26.5,30.21,SSE,155,0.0,0.0,48,0.00,,,0.00,0,Wunderground v.1.15,2013-04-07 03:50:00,